Regional Weather Roundup
Issued by NWS

Home | Current Version | Previous Version | Text Only | Print | Product List | Glossary Off
Versions: 1 2 3 4 5 6 7 8 9 10 11 12 13 14 15 16 17 18 19 20 21 22 23 24 25 26 27 28 29 30 31 32 33 34 35 36 37 38 39 40 41 42 43 44 45 46 47 48 49 50

000
ASUS43 KMKX 271311
RWRWI

WISCONSIN REGIONAL WEATHER ROUNDUP
NATIONAL WEATHER SERVICE MILWAUKEE/SULLIVAN WI
700 AM CST THU NOV 27 2014

NOTE: "FAIR" INDICATES FEW OR NO CLOUDS BELOW 12,000 FEET WITH NO
SIGNIFICANT WEATHER AND/OR OBSTRUCTIONS TO VISIBILITY.

WIZ001-002-006>008-014>016-023>028-271400-
NORTHWEST WISCONSIN

CITY           SKY/WX    TMP DP  RH WIND       PRES   REMARKS
SUPERIOR ARPT  PTCLDY    -5 -10  77 W3        30.50F
ASHLAND        CLEAR     -1  -5  82 W5        30.44R WCI -11
HAYWARD        CLEAR     -5 -10  79 CALM      30.41R
SIREN          CLEAR     -7 -11  82 CALM      30.46F
CUMBERLAND     CLEAR     -4  -8  84 NW10      30.41S WCI -21
RICE LAKE      CLEAR     -2  -7  80 N3        30.44S
CHETEK         CLEAR     -2  -7  82 NW3       30.42F
LADYSMITH      CLEAR     -1  -5  84 NW8       30.40R WCI -16
EAU CLAIRE     CLEAR      0  -6  76 VRB3      30.43R
MENOMONIE      PTCLDY     0  -6  76 W7        30.45R WCI -13
NEW RICHMOND   CLEAR     -2  -7  81 N6        30.46S HAZE    WCI -14
OSCEOLA        CLEAR     -1  -6  81 NW7       30.51R WCI -15
$$

WIZ003>005-009-010-017-018-271400-
NORTH CENTRAL WISCONSIN

CITY           SKY/WX    TMP DP  RH WIND       PRES   REMARKS
MANITOWISH WTR LGT SNOW  -2  -5  88 NW5       30.29R WCI -12
ARBOR VITAE    LGT SNOW   6   2  84 NW7       30.28R WCI  -6
WOODRUFF       LGT SNOW   6   2  84 NW7       30.28R WCI  -6
RHINELANDER    PTCLDY     3   0  87 NW5       30.27S WCI  -6
EAGLE RIVER    PTCLDY     1  -3  84 CALM      30.26R
LAND O LAKES   LGT SNOW   3   0  86 CALM      30.27R
PHILLIPS       CLEAR     -1  -4  87 CALM      30.33R
TOMAHAWK       PTCLDY     4   1  85 CALM      30.30S
MEDFORD        CLOUDY     5   1  81 NW10      30.31R WCI -10
MERRILL        PTCLDY     7   3  83 N6        30.31R WCI  -3
$$

WIZ029-030-035-036-043>047-271400-
CENTRAL WISCONSIN

CITY           SKY/WX    TMP DP  RH WIND       PRES   REMARKS
WAUSAU         CLOUDY    10   5  80 NW9       30.30R WCI  -3
MOSINEE        CLOUDY    10   9  92 NW14      30.31R WCI  -5
MARSHFIELD     CLOUDY    10   3  73 NW14      30.32R WCI  -6
STEVENS POINT  LGT SNOW  12   8  85 NW8       30.31R WCI   0
WAUPACA        CLOUDY    18  11  76 NW9       30.31R WCI   7
WAUTOMA        CLOUDY    16  10  77 NW12      30.32R WCI   3
WISC RAPIDS    LGT SNOW  13   6  74 NW13      30.34R WCI  -2
CAMP DOUGLAS   FLURRIES  16  14  93 NW10      30.35R WCI   3
$$

WIZ011>013-019>022-031-037>040-048>050-271400-
NORTHEAST WISCONSIN

CITY           SKY/WX    TMP DP  RH WIND       PRES   REMARKS
ANTIGO         PTCLDY     3   1  88 N7        30.27R WCI  -9
SHAWANO        CLOUDY    18  10  71 N7        30.30R WCI   9
OCONTO         CLOUDY    15   7  70 N13       30.31R WCI   1
STURGEON BAY   CLOUDY    18  10  73 N20       30.27R WCI   1
GREEN BAY      CLOUDY    19  12  74 N13       30.29R WCI   6
MANITOWOC      CLOUDY    20  17  88 N16       30.27R WCI   6
APPLETON       MOCLDY    18  16  93 NW8       30.28R WCI   7
CLINTONVILLE   FLURRIES  18  12  79 N8        30.29R WCI   7
OSHKOSH        CLOUDY    20  14  77 MISG      30.28R
$$

WIZ032>034-041-042-053>061-271400-
SOUTHWEST WISCONSIN

CITY           SKY/WX    TMP DP  RH WIND       PRES   REMARKS
LA CROSSE      CLEAR     10   2  69 N14       30.43R WCI  -6
SPARTA         FLURRIES  10   5  80 NW8       30.41R WCI  -2
VIROQUA        CLOUDY    14  10  81 NW13      30.34R WCI   0
BOSCOBEL       CLOUDY    20  12  71 N8        30.39R WCI  10
PRAIRIE DU CHI CLOUDY    17  10  74 W12       30.39R WCI   5
PLATTEVILLE    CLOUDY    22  18  84 W9        30.34R WCI  12
$$

WIZ056-057-062-063-064-067-068-271400-
SOUTH CENTRAL WISCONSIN

CITY           SKY/WX    TMP DP  RH WIND       PRES   REMARKS
REEDSBURG      FLURRIES  17  12  82 N8        30.33R WCI   6
BARABOO/DELLS  FLURRIES  17  13  84 NW8       30.32R WCI   6
LONE ROCK      CLOUDY    24  13  62 NW9       30.36R WCI  14
MINERAL POINT  FLURRIES  23  18  80 NW9       30.31R WCI  13
MADISON        MOCLDY    20  14  77 NW8       30.31R WCI  10
MIDDLETON      CLOUDY    21  15  76 N8        30.32R WCI  12
WATERTOWN      CLOUDY    20  17  89 NW8       30.29R WCI  10
MONROE         CLOUDY    23  19  86 NW10      30.29R WCI  12
JANESVILLE     FLURRIES  25  21  86 NW8       30.30R WCI  16
$$

WIZ051-052-058>065-066-070>072-271400-
SOUTHEAST WISCONSIN

CITY           SKY/WX    TMP DP  RH WIND       PRES   REMARKS
MILWAUKEE      MOCLDY    24  17  74 NW12      30.26R WCI  13
WAUKESHA       CLOUDY    19  18  93 NW12      30.27R WCI   7
MILWAUKEE/TIMM CLOUDY    21  18  86 NW9G16    30.27R WCI  11
RACINE         CLOUDY    24  18  77 NW12      30.27R WCI  13
BURLINGTON     MOCLDY    20  18  89 NW10      30.27S WCI   9
KENOSHA        CLOUDY    23  18  81 NW10      30.26R WCI  12
FOND DU LAC    CLOUDY    20  15  81 NW14      30.28R WCI   7
SHEBOYGAN      CLOUDY    22  18  85 NW9       30.25R WCI  12
WEST BEND      CLOUDY    21  18  86 NW9       30.26R WCI  11
JUNEAU         PTCLDY    17  13  86 NW8       30.29R WCI   7
$$

LSZ147-162-271400-
LAKE SUPERIOR

STATION/POSITION TIME  TEMP    WIND        PRES    WAVE
                       AIR SEA DIR/SP/G            HT/PER
                 (UTC) (F)     (DEG/KT/KT) (MB)    (FT/S)
DEVILS ISLAND    1300    7     360/ 16/ 18 1032.3R
PORT WING        1200    7     330/ 12/ 16 1031.2S
SAXON HARBOR     1200   13     320/  8/ 11 1029.1
$$

LMZ867-665-643>646-271400-
LAKE MICHIGAN

STATION/POSITION TIME  TEMP    WIND        PRES    WAVE
                       AIR SEA DIR/SP/G            HT/PER
                 (UTC) (F)     (DEG/KT/KT) (MB)    (FT/S)
CHAMBERS ISLAND  1200   20     310/ 19/ 26 1024.7R
N MID LAKE BUOY  1250   23 42  330/ 21/ 25 1024.4R   5/ 5
NORTHPORT PIER   1206   22     330/ 22     1024.4R
SISTER BAY       1228          340/ 29/ 34   N/A
KEWAUNEE LAKESHO 1200   21     330/ 11/ 17 1023.3R
SHEBOYGAN LAKESH 1300   23 35  330/ 13/ 15 1025.9R
PORT WASHINGTON  1200   24     300/  8/ 12 1025.1
MILWAUKEE LAKESH 1200   24     310/  9/ 14   N/A
S MID LAKE BUOY  1250   31 42  310/ 17/ 21 1023.7R   4/ 5
KENOSHA   LAKESH 1300   23     310/ 13/ 17 1024.4R
$$

TC  - TEMPERATURE IN CELSIUS
VSB - VISIBILITY IN STATUTE MILES
WCI - WIND CHILL INDEX
HX  - HEAT INDEX



USA.gov is the U.S. government's official web portal to all federal, state and local government web resources and services.